Wetbulb
52.29 50.46 45.59 42.04 42.50 44.44 40.60 37.20 37.08 40.53 46.98 52.17 54.77 56.55 58.55 60.08 60.70 60.92 63.29 64.50 63.64 63.20 65.37 66.11 67.01 68.23 68.80 68.71 68.84 69.11 69.26 69.11
51.57 53.21 52.48 47.49 49.05 40.80 39.55 33.71 32.25 39.00 43.61 43.87 49.43 54.41 57.14 59.21 59.49 60.72 63.68 64.22 65.12 65.36 64.30 66.83 67.72 68.86 69.28 69.54 69.05 69.58 69.56 69.46
48.26 45.98 44.33 44.83 42.12 42.29 42.26 39.50 35.53 34.93 39.47 50.80 53.22 55.40 54.88 57.03 58.94 60.76 64.05 65.69 64.96 65.69 66.60 66.51 67.93 69.37 69.16 69.50 69.28 69.27 69.87 69.86
43.57 48.47 50.22 48.31 43.16 41.29 37.65 37.21 40.05 39.15 40.25 54.45 56.89 56.78 56.39 57.14 58.19 60.83 64.11 64.63 65.14 65.25 64.70 66.16 67.23 68.11 68.82 69.69 69.60 69.63 69.84 69.68
40.71 41.51 45.16 42.92 43.73 41.03 41.39 41.25 39.63 37.96 39.39 54.94 56.56 57.97 57.98 56.40 57.57 61.99 63.65 64.83 65.25 64.25 63.45 64.69 66.45 65.97 68.74 69.88 69.81 70.12 69.89 69.76
37.21 38.41 41.66 42.61 45.62 44.39 40.75 37.93 38.09 41.22 43.15 50.12 53.36 55.34 56.78 55.69 60.97 62.72 63.12 64.06 63.39 63.12 63.04 63.75 64.59 65.74 68.92 69.01 69.85 70.62 69.83 69.88
39.67 43.11 42.98 44.24 45.92 45.87 43.78 42.32 41.02 42.10 46.28 49.23 52.50 54.05 55.49 57.26 61.92 61.43 61.34 62.72 64.06 62.24 61.85 62.75 63.22 65.72 67.08 68.22 68.77 69.50 69.43 69.19
40.48 45.00 43.91 43.87 45.57 47.04 47.06 46.15 47.40 47.37 46.98 53.03 52.52 55.23 57.58 58.21 60.28 59.66 59.39 60.59 63.71 64.02 62.93 62.68 65.36 65.65 66.65 66.47 68.11 67.80 67.10 67.55
35.66 40.60 41.65 39.32 42.94 44.00 47.10 48.17 48.91 45.27 48.33 53.36 51.77 55.11 56.59 58.85 59.15 58.53 58.77 60.04 61.73 62.52 64.20 63.82 64.19 66.60 66.11 66.78 67.39 67.14 67.44 67.86
34.45 35.77 31.53 41.33 46.81 48.85 49.52 50.52 50.43 50.22 53.19 54.09 54.06 57.01 59.43 60.13 58.46 58.55 58.99 59.45 59.88 61.37 62.51 64.22 65.68 66.24 67.64 68.11 66.64 66.62 66.96 66.29
33.99 32.58 37.45 42.40 48.31 49.21 47.63 48.80 53.63 51.53 54.28 56.77 57.28 56.44 56.35 59.99 59.81 58.88 59.50 59.41 60.08 61.19 61.56 61.66 62.29 62.72 64.59 65.45 67.16 66.20 65.93 65.91
33.79 32.87 32.11 40.73 50.75 54.65 51.99 43.82 54.71 53.97 56.19 56.00 55.46 47.41 50.99 58.67 59.76 59.94 60.16 61.62 61.36 61.97 61.17 60.28 60.46 60.98 62.80 63.79 65.88 67.93 66.08 66.52
34.72 33.49 38.27 44.86 51.91 53.51 40.44 42.01 53.90 54.91 55.55 55.40 52.73 51.94 53.71 57.97 59.10 59.83 60.34 61.21 61.31 61.11 60.75 61.63 62.82 62.86 64.90 65.01 65.15 66.46 67.82 68.36
36.05 34.40 35.04 50.06 50.06 44.58 47.38 51.05 55.06 54.56 54.84 55.47 55.61 54.17 54.63 56.90 58.36 59.49 60.36 60.23 59.65 61.11 60.97 61.33 62.58 63.76 63.29 62.71 64.01 65.22 65.90 66.32
41.26 40.55 45.94 48.58 47.50 50.70 53.62 53.61 53.80 54.92 55.62 55.75 54.64 53.88 55.34 56.79 57.32 58.92 59.58 59.35 60.20 60.74 60.26 60.64 61.33 61.82 61.46 61.68 63.02 64.29 64.09 63.27
42.59 44.43 46.62 50.82 51.78 52.68 52.41 54.76 55.00 56.28 56.80 56.28 54.46 54.39 56.45 56.81 57.03 57.49 58.65 58.63 59.23 58.90 59.35 59.39 60.35 61.03 60.98 61.14 61.98 62.33 61.03 60.47
42.65 44.50 47.83 50.31 51.71 51.80 53.15 54.72 57.40 58.50 57.84 56.92 55.87 55.56 56.45 56.17 56.47 56.63 57.83 58.57 58.90 59.77 59.48 58.82 60.17 60.08 60.82 60.87 60.30 59.44 58.88 59.12
42.25 46.53 45.40 46.71 51.77 54.00 54.05 55.23 57.53 57.85 56.20 55.80 56.00 55.52 56.31 55.96 55.95 55.88 57.29 57.65 57.75 59.42 58.84 58.05 58.57 60.34 59.91 59.92 59.51 58.38 56.94 56.51
48.35 49.55 48.14 50.67 52.51 53.25 52.98 55.17 56.85 57.95 57.06 56.12 55.84 55.43 55.79 54.96 55.32 55.86 56.02 57.37 57.29 57.84 58.97 56.39 56.43 57.73 59.45 59.76 59.28 58.66 57.57 56.61
MSLP
1006.60 1006.83 1007.62 1009.33 1010.85 1012.15 1014.14 1015.78 1015.89 1014.93 1013.73 1012.73 1012.76 1013.02 1012.91 1012.35 1012.03 1012.30 1011.96 1011.81 1012.00 1012.03 1011.99 1011.88 1012.49 1012.88 1013.47 1014.01 1014.51 1014.98 1015.35 1015.77
1007.68 1007.56 1008.37 1009.07 1010.96 1012.62 1014.29 1016.01 1016.40 1015.54 1014.64 1013.73 1013.44 1013.51 1013.23 1013.11 1012.40 1012.31 1012.22 1011.78 1011.75 1011.53 1011.60 1011.38 1011.40 1012.09 1012.78 1013.39 1013.76 1014.10 1014.76 1015.23
1009.09 1009.33 1009.65 1010.46 1011.56 1013.21 1014.64 1015.71 1016.27 1015.98 1014.91 1013.25 1013.22 1013.17 1012.93 1012.60 1012.59 1012.24 1011.90 1011.50 1011.57 1011.61 1011.34 1010.96 1010.92 1011.33 1011.90 1012.79 1013.24 1013.84 1014.26 1014.80
1010.55 1010.03 1010.14 1010.60 1011.64 1012.94 1014.86 1016.05 1016.17 1015.84 1014.34 1013.30 1013.03 1012.69 1012.54 1012.30 1011.22 1011.27 1011.88 1011.69 1011.80 1011.85 1011.65 1010.97 1010.87 1010.98 1011.54 1012.26 1012.82 1013.00 1013.46 1014.12
1011.38 1010.85 1010.54 1010.80 1011.67 1012.72 1014.00 1015.08 1015.77 1015.71 1014.02 1013.04 1013.08 1012.65 1012.69 1012.47 1011.79 1010.67 1011.21 1011.39 1011.78 1011.77 1011.89 1011.62 1011.32 1011.11 1011.22 1011.72 1012.17 1012.61 1013.16 1013.72
1011.45 1010.84 1010.59 1010.91 1011.38 1012.32 1013.09 1014.53 1015.08 1014.56 1013.50 1012.93 1012.38 1012.06 1012.14 1012.39 1012.44 1011.81 1012.50 1012.10 1012.31 1012.40 1012.03 1011.86 1011.72 1011.53 1011.45 1011.64 1011.96 1012.41 1012.98 1013.45
1011.06 1010.60 1010.31 1010.22 1010.61 1011.40 1012.31 1012.63 1013.39 1013.14 1013.11 1012.29 1011.66 1011.83 1011.89 1012.60 1012.84 1012.42 1012.62 1012.52 1012.45 1012.71 1012.45 1012.01 1011.90 1012.02 1012.12 1012.33 1012.18 1012.29 1012.56 1013.14
1011.28 1010.53 1010.03 1009.84 1009.80 1010.30 1010.94 1011.73 1012.21 1012.42 1012.56 1011.51 1011.42 1011.54 1011.79 1012.18 1012.57 1012.45 1012.78 1012.86 1012.68 1012.59 1012.63 1012.55 1012.21 1012.45 1012.50 1012.65 1012.79 1012.75 1012.50 1012.74
1011.84 1010.99 1010.19 1009.88 1009.26 1009.34 1009.69 1010.23 1010.98 1011.91 1011.25 1011.31 1011.70 1011.77 1011.92 1011.79 1012.50 1012.51 1012.71 1013.08 1012.99 1012.77 1012.68 1012.52 1012.51 1012.36 1012.71 1012.49 1013.07 1013.11 1012.70 1012.64
1012.57 1011.70 1010.92 1009.39 1008.62 1008.43 1008.82 1009.66 1010.25 1010.78 1011.04 1011.54 1011.96 1012.03 1011.78 1011.86 1012.16 1012.43 1012.86 1012.98 1013.12 1013.08 1012.84 1012.63 1012.01 1012.27 1012.10 1012.58 1012.20 1012.02 1012.65 1012.49
1013.02 1012.45 1011.25 1009.39 1008.55 1008.44 1008.56 1010.01 1010.26 1010.84 1011.45 1011.86 1012.28 1012.41 1011.88 1011.51 1011.80 1012.39 1012.95 1013.16 1013.21 1013.43 1013.53 1013.33 1012.75 1012.35 1012.22 1012.02 1012.48 1011.98 1011.71 1011.79
1013.34 1012.78 1011.47 1009.63 1008.51 1008.15 1008.42 1010.00 1010.22 1010.84 1011.57 1012.11 1012.58 1012.89 1011.92 1011.54 1011.88 1012.60 1012.91 1013.03 1013.33 1013.49 1013.50 1013.19 1012.66 1012.48 1012.16 1012.34 1011.89 1011.67 1011.79 1012.05
1012.81 1012.14 1010.82 1009.24 1008.61 1008.72 1009.53 1010.17 1010.01 1010.65 1011.51 1012.19 1012.61 1011.94 1011.77 1011.79 1012.33 1012.76 1013.17 1013.31 1013.56 1013.71 1013.77 1013.49 1013.29 1012.80 1012.24 1012.07 1012.20 1012.22 1011.96 1011.80
1012.29 1011.38 1010.11 1008.52 1008.70 1008.89 1009.12 1009.43 1009.76 1010.59 1011.15 1011.73 1011.44 1011.64 1011.95 1012.10 1012.59 1012.91 1013.37 1013.84 1013.91 1013.74 1013.64 1013.43 1013.08 1012.89 1012.69 1012.64 1012.57 1012.31 1012.22 1012.22
1010.60 1009.75 1008.80 1008.27 1008.04 1007.98 1008.43 1009.11 1009.79 1010.13 1010.52 1011.01 1011.46 1011.61 1011.92 1012.37 1012.70 1013.09 1013.53 1013.71 1013.70 1013.71 1013.74 1013.75 1013.48 1013.21 1013.03 1012.99 1012.85 1012.76 1012.73 1012.83
1009.67 1009.08 1008.58 1008.24 1008.14 1008.30 1008.71 1008.90 1009.07 1009.35 1009.86 1010.61 1011.30 1011.71 1011.89 1012.17 1012.59 1013.00 1013.33 1013.50 1013.50 1013.62 1013.88 1013.81 1013.97 1013.67 1013.51 1013.55 1013.36 1013.28 1013.49 1013.81
1009.35 1008.93 1008.66 1008.41 1008.33 1008.57 1008.93 1009.06 1009.45 1009.81 1009.98 1010.37 1010.90 1011.34 1011.68 1012.16 1012.42 1012.55 1012.74 1013.07 1013.16 1013.38 1013.73 1013.97 1013.92 1013.85 1014.14 1014.14 1013.97 1014.11 1014.27 1014.72
1008.69 1008.43 1008.66 1008.59 1008.75 1008.76 1009.18 1009.27 1009.35 1009.69 1010.10 1010.31 1010.70 1011.12 1011.44 1011.97 1012.22 1012.49 1012.75 1012.87 1013.02 1013.31 1013.64 1013.95 1014.09 1014.15 1014.08 1014.24 1014.40 1014.48 1014.77 1015.33
1007.66 1007.85 1008.26 1008.38 1008.80 1009.12 1009.30 1009.27 1009.44 1009.73 1009.91 1010.23 1010.49 1010.79 1011.22 1011.64 1011.99 1012.37 1012.66 1012.80 1012.79 1013.26 1013.86 1014.12 1014.32 1014.26 1014.14 1014.22 1014.41 1014.94 1015.32 1015.64
Wind_Speed
6 3 4 3 5 4 8 3 3 3 6 4 5 7 6 6 9 4 6 7 11 9 11 13 14 16 16 14 14 12 11 6
4 4 8 6 5 4 4 3 3 4 5 5 3 3 4 3 6 5 5 8 6 6 12 16 18 16 16 15 16 13 10 8
3 3 2 1 2 7 6 4 6 2 7 5 5 5 4 5 5 5 6 3 4 2 4 14 16 17 18 15 15 12 12 10
3 2 0 2 4 5 6 4 2 4 8 2 5 8 6 6 8 5 6 4 3 1 4 3 12 13 15 14 14 14 13 12
9 7 2 2 3 5 6 3 4 5 7 2 5 11 5 7 7 7 1 4 5 4 3 3 2 7 12 14 15 12 11 12
8 7 3 3 4 4 5 4 4 6 5 5 9 8 1 3 2 7 1 3 4 1 3 4 4 5 2 6 7 9 9 10
4 5 3 4 5 8 8 6 6 4 7 7 10 4 4 4 0 4 3 2 6 4 2 5 5 5 6 4 3 5 8 8
5 4 3 3 3 9 5 5 3 5 6 7 5 2 5 3 5 4 3 2 1 6 4 1 5 3 4 4 3 3 5 4
3 2 3 4 3 4 4 5 8 6 9 5 3 5 5 4 3 4 4 4 3 4 3 4 5 2 3 5 4 4 4 3
3 3 2 9 6 8 5 5 3 4 3 3 2 3 5 5 4 0 3 4 3 1 4 1 3 2 3 5 4 3 6 3
5 4 5 4 4 2 5 2 2 5 5 4 4 2 6 6 3 2 2 2 2 2 1 2 4 2 2 5 9 10 10 10
3 4 4 7 6 3 4 3 4 6 6 6 5 1 6 6 2 3 2 3 2 1 2 2 4 4 3 2 1 3 4 5
3 3 6 6 5 3 3 9 6 7 7 7 5 7 3 3 3 3 3 6 4 3 1 4 5 5 2 4 2 2 2 6
3 4 3 6 4 7 8 2 6 6 7 10 9 4 1 3 5 5 5 4 3 3 4 5 5 1 4 4 1 4 5 6
8 8 5 4 5 3 8 8 6 7 7 9 6 5 4 5 4 4 5 4 3 4 4 4 4 6 3 1 4 6 6 6
4 2 3 2 1 5 3 7 7 7 8 8 6 8 6 5 5 6 6 4 4 5 4 4 4 3 5 5 5 5 8 7
1 3 2 1 3 6 5 2 3 4 5 8 7 6 7 7 7 6 6 6 5 6 5 3 3 4 3 2 3 5 7 5
5 6 5 5 5 5 6 6 8 9 5 6 6 8 6 6 6 7 7 6 5 6 6 4 2 4 5 4 3 5 6 4
5 5 4 2 5 3 7 7 5 7 7 8 8 8 6 5 6 6 4 6 7 8 6 5 3 4 3 4 5 4 4 4
Wind_Direction
59 51 110 174 57 167 102 4 68 251 290 299 151 24 343 121 98 38 303 205 206 217 202 193 190 186 189 188 199 195 202 189
347 33 37 113 147 70 15 143 261 294 288 241 56 314 321 44 79 69 306 207 174 191 211 201 197 192 190 195 197 193 195 193
27 16 180 42 56 51 109 121 168 219 259 222 173 212 216 158 128 87 23 194 164 336 308 210 202 195 192 194 195 193 192 195
195 182 215 120 148 128 121 221 194 149 269 269 209 216 211 256 135 74 102 236 179 314 331 340 204 198 194 194 195 198 194 191
348 353 24 205 148 99 108 82 192 139 262 161 263 246 228 267 311 84 330 138 166 126 63 13 350 207 187 192 209 197 189 195
184 207 161 162 181 168 119 123 179 225 256 285 260 254 347 54 58 85 14 138 151 187 121 91 50 51 91 187 185 186 188 190
219 254 227 217 189 177 199 176 158 244 210 244 236 225 273 103 344 88 123 107 166 163 143 121 87 61 63 37 95 162 169 183
188 312 21 274 306 207 192 143 125 143 254 225 244 224 249 194 189 165 213 205 32 177 163 131 112 130 142 76 13 211 139 155
241 338 348 343 283 272 173 164 146 184 232 159 218 247 281 296 218 171 218 228 153 125 139 203 217 198 161 157 185 218 113 94
182 35 196 239 293 217 137 98 154 121 194 126 127 270 275 225 268 326 205 227 225 276 119 137 80 106 169 197 185 240 213 156
132 168 279 339 310 238 147 26 302 146 123 108 101 28 284 246 219 202 207 192 210 218 220 218 213 203 217 196 211 210 205 192
125 143 193 237 310 109 75 350 176 136 163 154 139 51 268 212 151 142 127 109 148 9 324 262 286 263 223 262 299 224 199 183
144 170 283 236 220 47 93 233 165 160 169 157 194 200 265 98 97 93 76 92 98 85 351 298 270 258 128 92 91 63 91 133
105 107 252 195 137 160 209 214 168 165 185 195 231 250 118 99 97 97 102 93 91 72 46 352 339 157 100 93 40 95 74 79
166 203 230 256 206 195 161 163 194 186 196 202 220 260 139 159 149 137 145 142 119 101 66 27 12 8 63 62 99 107 102 80
90 327 254 248 72 130 168 193 194 203 191 170 183 164 189 164 164 157 161 164 142 100 64 60 40 25 36 24 354 79 90 93
350 298 337 349 116 148 160 181 147 78 165 185 167 192 172 178 195 187 163 169 165 129 113 87 83 83 63 110 101 83 86 82
206 210 154 239 134 149 159 188 179 162 179 198 179 187 177 194 176 172 170 162 141 123 117 103 87 106 115 110 104 102 108 110
188 179 180 80 151 170 175 188 191 187 188 183 197 190 175 187 184 163 176 162 146 143 138 138 135 104 106 112 121 118 114 120